Blue Canyon, CA

5:10 PM PDT on April 30, 2017 (GMT -0700)
Blue Canyon-Nyack

Weather History for KBLU - June, 2013

Change the Weather History Date:

Tuesday, June 25, 2013

  Actual Average Record
Temperature  
Mean Temperature 50 °F -  
Max Temperature 55 °F 74 °F 91 °F (2006)
Min Temperature 46 °F 55 °F 32 °F (1975)
Degree Days  
Heating Degree Days 14    
Moisture  
Dew Point 51 °F    
Average Humidity 99    
Maximum Humidity 100    
Minimum Humidity 93    
Precipitation  
Precipitation 190.00 in - - ()
Sea Level Pressure  
Sea Level Pressure 30.22 in    
Wind  
Wind Speed 12 mph (South)    
Max Wind Speed 18 mph    
Max Gust Speed 25 mph    
Averages and records for this station are not official NWS values.
T = Trace of Precipitation, MM = Missing Value Source: NWS Daily Summary

Daily Weather History Graph

Daily Weather History Graph

Search for Another Location

Airport or City:

Trip Planner

Search our weather history database for the weather conditions in past years. The results will help you decide how hot, cold, wet, or windy it might be!

Date:

Astronomy

Jun. 25, 2013 Rise Set
Actual Time 5:37 AM PDT 8:33 PM PDT
Civil Twilight 5:05 AM PDT 9:05 PM PDT
Nautical Twilight 4:24 AM PDT 9:46 PM PDT
Astronomical Twilight 3:37 AM PDT 10:33 PM PDT
Moon 10:23 PM PDT (6/25) 8:22 AM PDT (6/25)
Length of Visible Light 16h 00m
Length of Day
14h 55m
Waning Gibbous, 92% of the Moon is Illuminated
Jun 25
Waning Gibbous
Jun 29
Last Quarter
Jul 8
New
Jul 15
First Quarter
Jul 22
Full

Hourly Weather History & Observations

Time (PDT) Temp. Windchill Dew Point Humidity Pressure Visibility Wind Dir Wind Speed Gust Speed Precip Events Conditions
12:04 AM 48.2 °F - 48.2 °F 100% 30.02 in 0.5 mi SSE 10.4 mph - 0.01 in Fog , Rain Light Rain
12:52 AM 48.9 °F - 48.0 °F 97% 29.91 in 0.5 mi SSE 8.1 mph - 0.10 in Fog , Rain Rain
12:55 AM 48.2 °F - 48.2 °F 100% 30.42 in 0.5 mi SSE 8.1 mph - 10.01 in   Unknown
1:52 AM 48.0 °F - 48.0 °F 100% 29.94 in 0.5 mi SSE 12.7 mph - 0.07 in Fog , Rain Light Rain
1:55 AM 48.2 °F - 48.2 °F 100% 30.42 in 0.5 mi SSE 9.2 mph - 9.99 in   Unknown
2:07 AM 48.2 °F - 48.2 °F 100% 30.42 in 0.2 mi SSE 11.5 mph 18.4 mph 0.01 in   Unknown
2:12 AM 48.2 °F - 46.4 °F 93% 30.03 in 0.2 mi SSE 13.8 mph 23.0 mph 0.01 in Fog , Rain Light Rain
2:18 AM 46.4 °F 40.1 °F 46.4 °F 100% 30.42 in 0.5 mi SSE 15.0 mph - 0.01 in   Unknown
2:23 AM 46.4 °F 40.4 °F 46.4 °F 100% 30.03 in 0.5 mi SSE 13.8 mph 20.7 mph 0.01 in Fog , Rain Light Rain
2:52 AM 46.9 °F - 46.9 °F 100% 29.94 in 0.5 mi SSE 11.5 mph - 0.02 in Fog , Rain Light Rain
2:55 AM 46.4 °F 41.1 °F 46.4 °F 100% 30.42 in 0.5 mi SSE 11.5 mph - 10.00 in   Unknown
2:59 AM 46.4 °F 41.1 °F 46.4 °F 100% 30.42 in 0.2 mi South 11.5 mph - N/A   Unknown
3:04 AM 46.4 °F 40.7 °F 46.4 °F 100% 30.03 in 0.2 mi SSE 12.7 mph - 0.01 in Fog , Rain Light Rain
3:20 AM 46.4 °F 40.1 °F 46.4 °F 100% 30.42 in 0.5 mi SSE 15.0 mph 20.7 mph 0.02 in   Unknown
3:25 AM 46.4 °F 41.5 °F 46.4 °F 100% 30.42 in 0.2 mi SSE 10.4 mph - 0.02 in   Unknown
3:35 AM 46.4 °F 42.4 °F 46.4 °F 100% 30.02 in 0.2 mi SSE 8.1 mph - 0.03 in Fog , Rain Light Rain
3:52 AM 46.9 °F - 46.9 °F 100% 29.93 in 0.2 mi SSE 10.4 mph - 0.03 in Fog , Rain Light Rain
3:55 AM 46.4 °F 41.9 °F 46.4 °F 100% 30.42 in 0.2 mi SSE 9.2 mph - 10.01 in   Unknown
4:52 AM 48.0 °F - 48.0 °F 100% 29.91 in 0.2 mi SSE 12.7 mph 17.3 mph 0.03 in Fog , Rain Light Rain
4:55 AM 48.2 °F - 48.2 °F 100% 30.02 in 0.2 mi SSE 10.4 mph - 9.99 in   Unknown
5:14 AM 48.2 °F - 48.2 °F 100% 30.01 in 0.5 mi SSE 10.4 mph - 0.02 in Fog , Rain Light Rain
5:15 AM 48.2 °F - 48.2 °F 100% 30.42 in 0.5 mi SSE 9.2 mph - 0.02 in   Unknown
5:52 AM 48.9 °F - 48.0 °F 97% 29.91 in 0.5 mi SSE 9.2 mph 16.1 mph 0.12 in Fog , Rain Light Rain
5:54 AM 48.2 °F - 48.2 °F 100% 30.42 in 0.2 mi SSE 9.2 mph - 10.00 in   Unknown
5:55 AM 48.2 °F - 48.2 °F 100% 30.42 in 0.2 mi SSE 10.4 mph - 10.00 in   Unknown
5:59 AM 48.2 °F - 48.2 °F 100% 30.01 in 0.2 mi SSE 9.2 mph - 0.00 in Fog , Rain Light Rain
6:06 AM 48.2 °F - 48.2 °F 100% 30.01 in 0.2 mi SSE 9.2 mph 18.4 mph 0.01 in Fog Fog
6:34 AM 48.2 °F - 48.2 °F 100% 30.03 in 0.2 mi SSE 11.5 mph - 0.05 in Fog , Rain Rain
6:52 AM 50.0 °F - 48.9 °F 96% 29.93 in 0.2 mi South 16.1 mph 21.9 mph 0.08 in Fog , Rain Rain
6:55 AM 50.0 °F - 48.2 °F 94% 30.42 in 0.2 mi South 13.8 mph 19.6 mph 10.01 in   Unknown
7:52 AM 50.0 °F - 50.0 °F 100% 29.93 in 0.2 mi South 12.7 mph 20.7 mph 0.18 in Fog , Rain Light Rain
7:55 AM 50.0 °F - 50.0 °F 100% 30.42 in 0.2 mi SSE 15.0 mph 20.7 mph 9.99 in   Unknown
8:52 AM 51.1 °F - 51.1 °F 100% 29.94 in 0.2 mi South 13.8 mph 21.9 mph 0.11 in Fog , Rain Light Rain
8:55 AM 51.8 °F - 51.8 °F 100% 30.42 in 0.2 mi South 13.8 mph - 10.01 in   Unknown
9:52 AM 52.0 °F - 52.0 °F 100% 29.96 in 0.2 mi South 15.0 mph 21.9 mph 0.11 in Fog , Rain Rain
9:55 AM 51.8 °F - 51.8 °F 100% 30.42 in 0.2 mi South 11.5 mph - 9.99 in   Unknown
9:57 AM 51.8 °F - 51.8 °F 100% 30.42 in 0.5 mi South 11.5 mph - 0.03 in   Unknown
10:00 AM 51.8 °F - 51.8 °F 100% 30.42 in 0.2 mi South 13.8 mph - 0.03 in   Unknown
10:15 AM 51.8 °F - 51.8 °F 100% 30.42 in 0.5 mi South 13.8 mph - 0.07 in   Unknown
10:20 AM 51.8 °F - 51.8 °F 100% 30.08 in 0.8 mi South 15.0 mph 24.2 mph 0.10 in Rain Rain
10:26 AM 51.8 °F - 51.8 °F 100% 30.42 in 0.2 mi South 12.7 mph - 0.10 in   Unknown
10:31 AM 51.8 °F - 51.8 °F 100% 30.09 in 0.2 mi South 13.8 mph - 0.12 in Fog , Rain Heavy Rain
10:38 AM 53.6 °F - 51.8 °F 94% 30.42 in 0.5 mi South 15.0 mph - 0.15 in   Unknown
10:43 AM 53.6 °F - 51.8 °F 94% 30.09 in 0.5 mi South 12.7 mph 21.9 mph 0.15 in Fog , Rain Rain
10:47 AM 53.6 °F - 51.8 °F 94% 30.42 in 0.2 mi South 11.5 mph - 0.15 in   Unknown
10:52 AM 53.1 °F - 53.1 °F 100% 29.97 in 0.2 mi South 15.0 mph 20.7 mph 0.16 in Fog , Rain Light Rain
10:55 AM 53.6 °F - 53.6 °F 100% 30.42 in 0.2 mi South 11.5 mph 17.3 mph 10.00 in   Unknown
11:02 AM 53.6 °F - 53.6 °F 100% 30.42 in 0.5 mi South 18.4 mph - 0.02 in   Unknown
11:06 AM 53.6 °F - 51.8 °F 94% 30.42 in 0.2 mi South 13.8 mph - 0.03 in   Unknown
11:52 AM 54.0 °F - 54.0 °F 100% 29.99 in 0.2 mi South 12.7 mph 19.6 mph 0.11 in Fog , Rain Rain
11:55 AM 53.6 °F - 53.6 °F 100% 30.42 in 0.2 mi South 13.8 mph - 10.00 in   Unknown
12:23 PM 53.6 °F - 53.6 °F 100% 30.11 in 0.2 mi South 12.7 mph 25.3 mph 0.04 in Fog , Rain Light Rain
12:52 PM 54.0 °F - 54.0 °F 100% 29.98 in 0.2 mi South 12.7 mph - 0.13 in Fog , Rain Rain
12:55 PM 53.6 °F - 53.6 °F 100% 30.42 in 0.2 mi South 15.0 mph 21.9 mph 10.00 in   Unknown
12:56 PM 53.6 °F - 53.6 °F 100% 30.42 in 0.5 mi South 16.1 mph - N/A   Unknown
12:58 PM 53.6 °F - 53.6 °F 100% 30.42 in 0.2 mi South 15.0 mph - N/A   Unknown
1:52 PM 54.0 °F - 53.1 °F 97% 30.01 in 0.2 mi South 11.5 mph 19.6 mph 0.18 in Fog , Rain Rain
1:55 PM 53.6 °F - 53.6 °F 100% 30.42 in 0.2 mi SSW 11.5 mph - 10.01 in   Unknown
2:26 PM 53.6 °F - 53.6 °F 100% 30.42 in 0.5 mi South 16.1 mph - 0.12 in   Unknown
2:31 PM 53.6 °F - 53.6 °F 100% 30.14 in 0.5 mi South 16.1 mph 24.2 mph 0.15 in Fog , Rain Rain
2:33 PM 53.6 °F - 53.6 °F 100% 30.42 in 0.2 mi South 13.8 mph - 0.14 in   Unknown
2:38 PM 53.6 °F - 53.6 °F 100% 30.14 in 0.2 mi South 10.4 mph 24.2 mph 0.17 in Fog , Rain Rain
2:47 PM 55.4 °F - 53.6 °F 94% 30.42 in 0.5 mi South 10.4 mph - 0.20 in   Unknown
2:52 PM 55.0 °F - 54.0 °F 96% 30.01 in 0.5 mi South 15.0 mph 21.9 mph 0.22 in Fog , Rain Light Rain
2:55 PM 55.4 °F - 53.6 °F 94% 30.42 in 0.5 mi SSW 13.8 mph - 9.99 in   Unknown
3:03 PM 55.4 °F - 53.6 °F 94% 30.42 in 0.2 mi South 13.8 mph - 0.02 in   Unknown
3:08 PM 55.4 °F - 55.4 °F 100% 30.14 in 0.2 mi South 13.8 mph 20.7 mph 0.04 in Fog , Rain Rain
3:52 PM 54.0 °F - 54.0 °F 100% 30.02 in 0.2 mi South 16.1 mph 23.0 mph 0.13 in Fog , Rain Light Rain
3:55 PM 53.6 °F - 53.6 °F 100% 30.42 in 0.1 mi South 13.8 mph - 10.00 in   Unknown
4:38 PM 53.6 °F - 53.6 °F 100% 30.14 in 0.2 mi South 15.0 mph 20.7 mph 0.08 in Fog , Rain Rain
4:52 PM 55.0 °F - 54.0 °F 96% 30.01 in 0.2 mi South 13.8 mph 19.6 mph 0.09 in Fog , Rain Rain
4:55 PM 53.6 °F - 53.6 °F 100% 30.42 in 0.2 mi South 12.7 mph - 10.02 in   Unknown
5:52 PM 55.0 °F - 55.0 °F 100% 30.00 in 0.2 mi SSW 13.8 mph 20.7 mph 0.08 in Fog , Rain Rain
5:55 PM 55.4 °F - 55.4 °F 100% 30.42 in 0.1 mi South 13.8 mph 19.6 mph 9.98 in   Unknown
6:52 PM 55.0 °F - 55.0 °F 100% 30.00 in 0.2 mi South 11.5 mph 18.4 mph 0.02 in Fog , Rain Light Rain
6:55 PM 55.4 °F - 55.4 °F 100% 30.42 in 0.1 mi South 12.7 mph 18.4 mph 10.00 in   Unknown
7:52 PM 55.0 °F - 55.0 °F 100% 30.00 in 0.2 mi South 6.9 mph 16.1 mph 0.00 in Fog Fog
7:55 PM 55.4 °F - 55.4 °F 100% 30.42 in 0.1 mi South 10.4 mph - N/A   Unknown
8:52 PM 55.0 °F - 55.0 °F 100% 30.00 in 0.2 mi SSW 9.2 mph - N/A Fog Fog
8:55 PM 55.4 °F - 55.4 °F 100% 30.42 in 0.2 mi South 10.4 mph - N/A   Unknown
9:52 PM 55.0 °F - 55.0 °F 100% 30.00 in 0.2 mi South 5.8 mph - N/A Fog Fog
9:55 PM 55.4 °F - 55.4 °F 100% 30.42 in 0.1 mi South 6.9 mph - N/A   Unknown
10:52 PM 55.0 °F - 55.0 °F 100% 30.00 in 0.2 mi South 6.9 mph - N/A Fog Fog
10:55 PM 55.4 °F - 55.4 °F 100% 30.42 in 0.2 mi South 8.1 mph - N/A   Unknown
11:52 PM 55.9 °F - 55.0 °F 97% 30.00 in 0.2 mi South 8.1 mph - N/A Fog Fog
11:55 PM 55.4 °F - 55.4 °F 100% 30.42 in 0.2 mi South 9.2 mph - N/A   Unknown